Showing default

FLOCK 4BE 2, 60511

Orbit data source: Space-Track

FLOCK 4BE 2, 60511 is a payload satellite owned by Planet (US) in SSO that was launched on Fri, 16 Aug 2024 UTC via an FALCON 9 launch vehicle from the Air Force Western Test Range (AFWTR). Payload-class satellites include a variety of spacecraft equipped with specific instruments for various scientific and technological missions. These include communications satellites like Starlink; space stations such as the ISS; scientific satellites like the Hubble; Earth observation satellites from companies like Planet Labs, Umbra, and HawkEye 360; GPS; miniature CubeSats for education and research; and military/defense satellites.

Loading next visibility...
Identifier
60511, 2024-149AV
Orbit
SSO
Country
Flag of USUS
Related business
Manufacturer
Planet
Mission
Operational Commercial Imaging
Bus & Motor
CUBESAT 3U, Unknown motor
Mass
5.7 kg wet, 5.7 kg dry
Launch date (UTC)
2024-08-16 (1 year ago)
Launch vehicle
FALCON 9
Launch site
Air Force Western Test Range (AFWTR)
Object type
Payload
Rocket body
Debris
Shape & HBR
Box + 2 Pan, 1.0 m
Radar Cross Section
0.072 m², Medium (>0.1 m² and < 1m²)

Expand to show TLE details & history
Last TLE update: 12 hours ago

TLE from 12 hours ago
0 FLOCK 4BE 2
1 60511U 24149AV  25345.17183885  .00028514  00000-0  78594-3 0  9999
2 60511  97.3984  64.5274 0002579 229.2804 130.8217 15.37082488 73494
Epoch: 2025-12-11T04:07Z
TLE epoch observation values (Epoch: 2025-12-11T04:07:26.876Z)
Latitude
Longitude
-77.46622°
Altitude
459.008 km
Speed
7.637 km/s
True Right ascension
04h 18m 06s
True Declination
0° 00' 00"
Sunlit
Object was in full shadow at epoch
Visualization orbit readout
Latitude
Unknown
Longitude
Unknown
Altitude
Unknown
Speed
Unknown
Apparent Right ascension
Unknown
Apparent Declination
Unknown
Sunlit
N/A
Visualization observer readout
Local Sidereal Time
14:00:07
Azimuth
Unknown
Elevation
Unknown
Doppler factor
Unknown
Orbital elements
Apogee altitude
453.446 km
Perigee altitude
449.923 km
Semi-major axis
6,829.822 km
Eccentricity
0.00026
Inclination
97.3984°
RAAN
64.5274°
Arg. of periapsis
229.2804°
True anomaly
130.84406°
Mean anomaly
130.8217°
Eccentric anomaly
130.83288°
Mean motion
3.84529 °/min
Orbital period
93.62 mins
BSTAR
0.00078594
Loading maneuver chart data...
Computing Atmospheric mass density...
Loading historical data...
Loading historical data...
Loading historical data...
Loading historical data...
Loading historical data...
Loading historical data...
Loading historical data...

Documentation

Showing up to 5 results
|